Retour au catalogue

STARLINK-3594

ActifCommunicationsVLEO
NORAD 51895·PAYLOAD·🇺🇸 United States

Lancé Mar 3, 2022 depuis Cape Canaveral Space Force Station

Loading…

Prochains Passages (prochaines 24 heures)

TLE

FraisSource: CelesTrak SupGP

Époque: Sep 15, 2026, 01:45 UTC

1 51895C 22022AV  26258.07340278 -.00020136  00000+0 -59494-3 0  2585
2 51895  53.1568 213.4264 0001271  89.6420 133.8203 15.34399667    14

Suivez STARLINK-3594 en temps réel avec AllMySat

Download on the App Store